Location: Ajisawe
(8.4333°N, 4.3833°E)
Time: 00:13:50
(UTC+00:00)

A-11 Canister half - Pass Details

Date: 27 April 2021
Orbit: 1514 x 1685 km, 47.2° (Epoch: 15 May)

Event Time Altitude Azimuth Distance (km) Brightness Sun altitude
Rises 02:13:50 0° 328° (NNW) 4,830 11.6 -45.8°
Reaches altitude 10° 02:17:04 10° 334° (NNW) 3,866 11.1 -45.1°
Enters shadow 02:17:26 11° 335° (NNW) 3,762 11.0 -45.1°
Exits shadow 02:20:20 23° 343° (NNW) 2,969 10.5 -44.4°
Maximum altitude 02:26:38 51° 48° (NE) 2,020 9.7 -43.1°
Drops below altitude 10° 02:36:21 10° 121° (ESE) 3,944 11.4 -40.9°
Sets 02:39:40 0° 126° (SE) 4,934 12.0 -40.2°
